Regional Weather Roundup
Issued by NWS

Home | Current Version | Previous Version | Graphics & Text | Print | Product List | Glossary On
Versions: 1 2 3 4 5 6 7 8 9 10 11 12 13 14 15 16 17 18 19 20 21 22 23 24 25 26 27 28 29 30 31 32 33 34 35 36 37 38 39 40 41 42 43 44 45 46 47 48 49 50
091
ASUS45 KBOU 050507
RWRCO

WEATHER ROUNDUP FOR COLORADO
NATIONAL WEATHER SERVICE DENVER/BOULDER CO
1000 PM MST THU FEB 04 2016

NOTE: "FAIR" INDICATES FEW OR NO CLOUDS BELOW 12000 FEET WITH NO
SIGNIFICANT WEATHER AND/OR OBSTRUCTIONS TO VISIBILITY.

COZ001>005-013-030-031-050600-
...NORTHWEST COLORADO...

CITY           SKY/WX    TMP DP  RH WIND       PRES   REMARKS
CRAIG          LGT SNOW  15  11  83 CALM      30.31S VSB 1
HAYDEN         CLOUDY    12   9  85 E5        30.29R WCI   4
MEEKER         LGT SNOW  16  13  88 CALM      30.32S FOG
MOUNT WERNER   NOT AVBL
STEAMBOAT SPGS CLOUDY    11   8  87 CALM      30.28R
WALDEN         CLOUDY    14   7  73 SW12      30.18S WCI   0
$$

COZ006>008-011-050600-
...WEST CENTRAL VALLEYS...

CITY           SKY/WX    TMP DP  RH WIND       PRES   REMARKS
GRAND JUNCTION LGT SNOW  17  16  95 CALM      30.45R FOG
MONTROSE       CLOUDY    14   7  73 S6        30.42R WCI   5
EAGLE          PTCLDY    12  10  92 CALM      30.33R
RIFLE          LGT SNOW  16  12  84 SE5       30.40R FOG     WCI   9
DELTA          CLOUDY    21  15  78 CALM      30.43S
NUCLA          CLOUDY    16  12  86 E5        30.43R WCI   9
$$

COZ017>023-064>068-050600-
...SOUTHWEST COLORADO...

CITY           SKY/WX    TMP DP  RH WIND       PRES   REMARKS
DURANGO        CLOUDY     4   0  83 N6        30.27S WCI  -7
CORTEZ         CLOUDY    11   6  81 E7        30.35R WCI   0
PAGOSA SPRINGS CLOUDY     6   3  87 CALM      30.24F
TELLURIDE      LGT SNOW   8   5  86 CALM      30.25S
WOLF CREEK PAS CLOUDY     3   1  92 N6        30.11F WCI  -8
$$

COZ009-010-012-014-032>034-037-058>063-050600-
...CENTRAL COLORADO...

CITY           SKY/WX    TMP DP  RH WIND       PRES   REMARKS
ASPEN          CLOUDY    12   8  84 CALM      30.25S
BUENA VISTA    CLOUDY    21   6  52 NW17G30   30.13S WCI   7
COPPER MTN     LGT SNOW   5   0  78 W14G21    30.07S WCI -12
BERTHOUD PASS  CLOUDY    -2 -13  60 N31G38    29.99F WCI -29
COTTONWOOD PAS CLOUDY    19   5  53 W7        30.09R WCI  10
GUNNISON       CLOUDY    -2  -9  71 CALM      30.32S
KREMMLING      CLOUDY     3   0  85 CALM      30.28F
LEADVILLE      CLOUDY     6   1  80 N10       30.12S WCI  -9
MONARCH PASS   CLOUDY     1  -4  78 MISG      30.15S
SALIDA         CLOUDY    23   8  52 W7G16     30.23R WCI  15
SUNLIGHT       LGT SNOW N/A N/A N/A CALM        N/A
WILKERSON PASS CLOUDY    10   3  72 NW10G21   30.06R WCI  -3
$$

COZ069>075-050600-
...SAN LUIS VALLEY/SANGRE DE CRISTO MOUNTAINS...

CITY           SKY/WX    TMP DP  RH WIND       PRES   REMARKS
ALAMOSA        CLOUDY    -3  -8  79 W9        30.21R WCI -19
LA VETA PASS   CLOUDY     5   0  78 MISG      30.04F
SAGUACHE       CLOUDY    18   9  68 NW15      30.19S WCI   3
$$

COZ035-036-038>040-050600-
...NORTHERN COLORADO FRONT RANGE...

CITY           SKY/WX    TMP DP  RH WIND       PRES   REMARKS
DENVER INTL AP CLOUDY    22   9  57 SW9       30.17R WCI  12
DMNS CITY PARK   N/A     24   9  53 MISG      30.18S
AURORA         CLOUDY    21  11  65 S2        30.18R
FRONT RANGE AP NOT AVBL
ERIE MUNI ARPT CLOUDY    22  14  72 S5        30.18S WCI  15
BOULDER MUN AP CLOUDY    27  10  50 CALM      30.17S
CENTENNIAL     CLOUDY    23  11  60 CALM      30.16R
BROOMFIELD     CLOUDY    23   9  54 CALM      30.17R
FORT COLLINS   CLOUDY    23  16  74 S3        30.18S
LONGMONT       CLOUDY    24  13  63 CALM      30.20S
$$

COZ041-046-047-076>085-087-088-050600-
...PIKES PEAK/PALMER DIVIDE AND SOUTHERN FOOTHILLS...

CITY           SKY/WX    TMP DP  RH WIND       PRES   REMARKS
COLO. SPRINGS  LGT SNOW  22  18  85 NW9       30.16R FOG     WCI  12
A. F. ACADEMY  LGT SNOW  19  18  93 N5        30.14S FOG     WCI  13
SCHRIEVER AFB  LGT SNOW  20  15  80 W7        30.16R WCI  11
ELLICOTT       NOT AVBL
FALCON         LGT SNOW  20  17  88 W3        30.14S
FORT CARSON    FLURRIES  23  10  58 N5        30.14R WCI  17
LIMON          CLOUDY    22   8  55 W7        30.17R WCI  13
MONUMENT HILL  LGT SNOW  19  18  93 SW6       30.14R WCI  11
TRINIDAD       CLOUDY    26   9  48 NW7       30.11F WCI  18
$$

COZ042>045-048>051-090-091-050600-
...NORTHEAST COLORADO...

CITY           SKY/WX    TMP DP  RH WIND       PRES   REMARKS
GREELEY ARPT   CLOUDY    21  16  79 E3        30.20S
AKRON          CLOUDY    26  13  57 SW12      30.20R WCI  16
BURLINGTON     CLOUDY    23  10  57 S7        30.18F WCI  15
WRAY           CLOUDY    26  18  70 W3        30.24R
STERLING       CLOUDY    23  19  86 S6        30.20S WCI  16
HOLYOKE        CLOUDY    30  21  69 SW8       30.23R WCI  23
FORT MORGAN    CLOUDY    22  17  83 CALM      30.21R
$$

COZ086-089-092>099-050600-
...SOUTHEAST COLORADO...

CITY           SKY/WX    TMP DP  RH WIND       PRES   REMARKS
PUEBLO         CLOUDY    27  11  51 N8        30.17S WCI  19
LA JUNTA       CLOUDY    25  17  72 E3        30.17R
LAMAR          CLOUDY    26  18  71 E3        30.17F
SPRINGFIELD      N/A     26  15  63 E7        30.17S WCI  18
$$




USA.gov is the U.S. government's official web portal to all federal, state and local government web resources and services.